User: anonymous   Login
Location: Caltech
(34.1382°N, 118.1253°W)
Time: 05:48:17
(UTC-08:00)
Language:

HST - Orbit

View from above orbital plane
View from above orbital plane
View from above satellite
View from above satellite

Ground track
Ground track

The orbit data is extracted from the following two-line orbital elements,

1 20580U 90037B   14328.67017476  .00003888  00000-0  24686-3 0  1639
2 20580 028.4711 061.6586 0002930 194.0708 311.6964 15.06242746148937
Epoch (UTC): 24 November 2014 16:05:03
Eccentricity: 0.0002930
inclination: 28.4711°
perigee height: 545 km
apogee height: 550 km
right ascension of ascending node: 61.6586°
argument of perigee: 194.0708°
revolutions per day: 15.06242746
mean anomaly at epoch: 311.6964°
orbit number at epoch: 14893

The dashed part of the orbit path shows where the satellite is in the earth's shadow,  

DLR